GFSNGP_850_dewp_036.txt.gz
Dewpoint
-4 -3 -2 -1 -2 -4 -4 -2 2 0 -5 -7 -9 -6 -9 -8 -6 -4 -4 1 1 2 3 4 4 4 3 1 -1 -1 -1 -4 -2 -5 -5 -5 -6 -5 -5 -5 -5 -6 -5 -6
3 0 -1 -0 -3 -3 -3 -5 -5 -6 -6 -9 -8 -6 -6 -7 -7 -6 -4 -3 1 2 3 4 4 3 2 0 -1 -0 -2 -3 -1 -5 -6 -7 -6 -5 -5 -6 -7 -6 -6 -6
6 1 -0 4 1 -1 -3 -5 -5 -2 -3 -6 -7 -8 -6 -6 -6 -4 -3 -3 -1 2 2 3 3 2 1 -0 -1 -1 -2 -4 -7 -5 -5 -7 -6 -6 -7 -7 -7 -6 -6 -6
9 4 6 -5 -7 -8 -5 -7 -8 -8 -7 -8 -4 -4 -5 -5 -4 -4 -3 -2 -2 -1 2 2 2 2 0 -1 -2 -2 -5 -5 -5 -7 -7 -7 -7 -7 -7 -7 -7 -6 -6 -6
10 5 -1 -4 -8 -6 -6 -6 -7 -6 -7 -7 -7 -4 -3 -4 -3 -4 -4 -4 -3 -1 1 2 2 0 -1 -2 -4 -5 -4 -3 -6 -8 -9 -9 -7 -7 -7 -7 -6 -6 -6 -6
7 9 8 1 -5 -6 -6 1 -4 -4 -4 -4 -5 3 1 -0 -2 -2 -2 -1 -1 -0 1 1 -0 -2 -4 -5 -7 -6 -4 -7 -7 -8 -10 -8 -7 -7 -7 -7 -6 -6 -6 -6
7 9 6 -3 -5 -4 2 4 -3 -2 -3 -2 0 0 2 1 0 -1 -0 1 1 1 0 -1 -3 -5 -5 -4 -3 -2 -5 -7 -6 -9 -8 -7 -8 -8 -7 -7 -7 -6 -6 -6
9 8 8 -5 -3 0 2 -2 -2 -2 -2 -1 -1 -1 0 -0 1 1 1 0 -1 -2 -4 -3 -3 -2 -2 -2 -5 -6 -4 -9 -11 -12 -8 -7 -7 -7 -7 -6 -6 -6 -5 -5
6 6 -1 -5 -4 -4 -3 -2 -1 -1 -0 -0 1 1 1 1 1 1 -3 -4 -4 -3 -2 -2 -1 -1 -2 -5 -5 -7 -8 -10 -16 -9 -6 -6 -6 -6 -6 -7 -7 -6 -7 -6
2 -4 -4 -4 -3 -1 1 2 2 2 2 3 3 3 2 1 -1 -4 -3 -1 -1 -2 -2 -3 -4 -5 -5 -4 -6 -9 -13 -16 -7 -6 -8 -8 -7 -6 -6 -6 -6 -6 -8 -6
0 -2 -1 1 3 4 3 3 3 3 2 1 2 1 -1 -3 -3 -2 -2 -2 -3 -3 -3 -3 -3 -4 -5 -7 -9 -10 -6 -10 -13 -13 -12 -10 -9 -7 -6 -6 -6 -6 -7 -7
7 2 3 3 2 2 2 2 1 0 -1 -1 -1 -2 -2 -2 -3 -3 -3 -2 -1 -1 -3 -4 -6 -6 -8 -11 -10 -12 -14 -14 -14 -12 -11 -9 -7 -6 -6 -7 -6 -6 -7 -8
3 3 4 2 2 2 1 1 1 0 0 -0 -1 -2 -2 -2 -2 -2 -1 -2 -4 -5 -6 -6 -9 -8 -9 -11 -11 -11 -12 -12 -12 -10 -8 -7 -5 -6 -6 -8 -8 -7 -7 -6
2 3 2 2 2 1 1 0 -0 -1 -2 -2 -2 -2 -1 -2 -2 -3 -4 -5 -6 -9 -11 -12 -11 -9 -8 -8 -7 -7 -8 -10 -10 -8 -7 -5 -6 -6 -6 -8 -8 -9 -9 -8
1 2 1 1 1 0 -0 -1 -2 -2 -2 -3 -4 -5 -5 -4 -5 -5 -5 -6 -6 -8 -8 -8 -9 -10 -10 -11 -11 -10 -7 -6 -6 -6 -5 -5 -5 -6 -6 -7 -7 -8 -8 -8
1 1 1 0 -0 -1 -2 -1 -2 -3 -3 -3 -3 -4 -5 -6 -7 -6 -6 -7 -11 -12 -12 -12 -13 -13 -12 -9 -8 -6 -6 -6 -6 -5 -5 -5 -5 -5 -6 -6 -6 -7 -8 -8
1 0 0 -0 -1 -2 -1 -1 -2 -2 -4 -7 -11 -12 -13 -13 -11 -12 -12 -11 -12 -12 -13 -12 -6 -5 -5 -5 -6 -6 -6 -7 -7 -6 -5 -5 -5 -6 -6 -6 -7 -7 -7 -9
0 -0 -1 -1 -2 -2 -2 -3 -6 -8 -12 -12 -12 -12 -12 -11 -10 -11 -12 -15 -19 -22 -16 -5 -6 -6 -7 -7 -7 -7 -8 -7 -7 -8 -8 -8 -7 -7 -7 -8 -8 -7 -7 -8
-1 -1 -1 -2 -2 -4 -5 -7 -9 -10 -11 -12 -11 -11 -11 -14 -17 -19 -20 -21 -16 -9 -7 -8 -9 -10 -13 -13 -11 -10 -9 -8 -8 -7 -7 -9 -8 -7 -8 -9 -9 -8 -7 -7
-2 -3 -4 -4 -5 -8 -9 -6 -5 -9 -11 -9 -12 -15 -17 -18 -20 -21 -19 -11 -9 -8 -8 -9 -11 -16 -12 -10 -9 -10 -11 -12 -10 -9 -8 -8 -7 -8 -8 -9 -8 -8 -8 -8
-5 -5 -11 -12 -11 -10 -11 -10 -9 -9 -10 -14 -16 -17 -19 -22 -20 -19 -15 -11 -9 -11 -15 -22 -16 -12 -13 -13 -14 -14 -12 -11 -11 -9 -9 -8 -7 -8 -8 -8 -8 -9 -8 -8
-5 -9 -10 -11 -9 -9 -9 -9 -8 -11 -15 -16 -17 -19 -22 -24 -20 -15 -13 -11 -12 -14 -18 -17 -12 -13 -15 -15 -13 -11 -11 -10 -9 -8 -8 -8 -8 -9 -10 -10 -10 -10 -10 -10
-7 -10 -9 -5 -5 -7 -7 -9 -13 -14 -14 -17 -17 -20 -21 -20 -14 -13 -11 -12 -14 -17 -19 -14 -15 -17 -17 -16 -14 -13 -13 -12 -12 -12 -12 -12 -12 -12 -12 -12 -11 -11 -11 -11
-4 -5 -5 -6 -6 -8 -9 -11 -13 -12 -13 -15 -14 -14 -16 -15 -14 -12 -13 -14 -15 -16 -15 -15 -15 -17 -17 -17 -16 -15 -15 -15 -15 -14 -14 -14 -14 -14 -14 -14 -13 -13 -13 -12
-5 -6 -6 -8 -8 -9 -10 -12 -13 -13 -14 -16 -13 -13 -14 -13 -13 -14 -14 -14 -15 -15 -16 -16 -17 -16 -17 -17 -16 -16 -16 -16 -16 -16 -16 -16 -16 -16 -15 -15 -15 -15 -15 -14
-5 -6 -8 -9 -10 -11 -13 -18 -20 -15 -18 -13 -13 -17 -14 -13 -14 -15 -15 -15 -16 -16 -17 -17 -17 -18 -18 -18 -18 -18 -18 -17 -18 -17 -17 -17 -17 -17 -17 -16 -16 -19 -20 -19
-7 -8 -9 -9 -10 -13 -18 -23 -19 -22 -16 -13 -15 -17 -14 -14 -15 -15 -16 -16 -17 -17 -17 -18 -18 -19 -19 -20 -20 -20 -20 -19 -19 -19 -18 -18 -18 -18 -18 -18 -18 -20 -20 -19

GFSNGP_850_dewp_039.txt.gz
Dewpoint
-2 -0 -1 -1 0 -0 -2 1 2 1 0 -2 -5 -6 -6 -4 -4 -4 -2 2 3 3 3 3 4 5 5 5 5 3 -0 -0 -1 -3 -3 -3 -3 -2 -5 -7 -4 -5 -6 -7
3 2 0 -0 -0 -1 -2 -1 -2 -3 -2 -6 -6 -6 -6 -6 -6 -5 -4 -3 1 3 4 4 5 5 5 5 3 1 -1 -1 -2 -3 -2 -3 -4 -4 -5 -5 -7 -7 -7 -6
4 0 -0 0 -1 -1 -1 -2 -2 -2 -3 -3 -3 -4 -4 -5 -4 -3 -3 -3 -2 1 3 4 5 4 5 3 1 -0 -1 -2 -3 -3 -4 -4 -2 -5 -6 -7 -10 -7 -7 -6
4 2 -1 -1 -6 -6 -5 -4 -5 -5 -6 -3 -4 -2 -3 -4 -4 -4 -4 -3 -3 -2 -1 2 3 4 3 1 -0 -1 -2 -4 -4 -4 -3 -5 -6 -6 -5 -7 -6 -6 -6 -5
3 4 1 -2 -4 -4 -4 -2 -3 -2 -3 -3 -4 -2 1 -1 -2 -2 -2 -2 -2 -1 1 2 2 2 1 -1 -1 -2 -5 -4 -3 -5 -5 -5 -5 -6 -7 -6 -6 -7 -6 -6
4 4 1 1 -5 -5 -5 2 -1 -1 -1 -0 0 3 3 0 -1 0 -0 -0 -0 1 1 1 -1 -1 -1 -3 -5 -5 -4 -3 -3 -3 -3 -6 -10 -11 -8 -7 -7 -7 -7 -6
3 3 3 0 -4 -4 -1 2 -1 -1 -1 -1 1 1 1 1 0 1 1 1 1 0 -1 -3 -4 -4 -4 -5 -5 -3 -2 -2 -2 -4 -8 -13 -10 -7 -8 -8 -7 -8 -7 -6
5 5 5 -4 -3 -0 3 -1 -1 -1 0 0 1 1 2 1 -0 -0 -1 -1 -1 -1 -2 -3 -4 -4 -4 -5 -4 -2 -1 -2 -4 -10 -9 -8 -8 -7 -7 -6 -6 -6 -6 -6
4 4 2 -4 -1 -0 -0 1 2 2 2 2 3 3 1 -1 -2 -3 -2 -2 -3 -2 -2 -2 -3 -3 -2 -1 -1 -3 -4 -7 -9 -11 -15 -12 -9 -9 -7 -7 -6 -7 -6 -6
1 1 -1 3 2 2 2 3 3 3 3 3 2 1 -1 -2 -2 -2 -3 -3 -3 -3 -3 -2 -1 -2 -3 -4 -5 -6 -8 -9 -14 -13 -12 -13 -12 -12 -10 -7 -6 -6 -6 -6
1 4 4 3 3 3 3 2 3 2 1 1 1 -1 -2 -2 -3 -3 -3 -2 -2 -2 -2 -3 -4 -5 -7 -9 -9 -10 -13 -14 -13 -13 -14 -13 -12 -10 -8 -7 -6 -6 -6 -6
4 4 3 2 2 2 1 0 0 1 -0 -1 -1 -2 -3 -3 -3 -2 -1 -1 -3 -6 -7 -6 -7 -8 -10 -12 -11 -10 -9 -10 -13 -13 -13 -12 -11 -9 -8 -7 -8 -8 -9 -8
4 3 2 2 2 1 1 0 0 0 -0 -1 -2 -2 -2 -2 -1 -3 -6 -6 -5 -6 -6 -9 -8 -7 -7 -7 -7 -7 -7 -8 -8 -8 -9 -9 -8 -7 -7 -8 -7 -8 -8 -9
3 2 2 2 1 1 1 -0 -1 -2 -2 -2 -2 -3 -5 -5 -5 -4 -5 -6 -7 -11 -9 -8 -8 -9 -10 -11 -11 -11 -9 -7 -5 -6 -6 -6 -6 -5 -5 -5 -5 -8 -8 -8
2 2 2 1 1 -0 -1 -2 -2 -2 -3 -5 -4 -4 -5 -5 -6 -6 -6 -6 -8 -13 -13 -13 -14 -14 -13 -10 -7 -6 -6 -7 -7 -5 -5 -5 -5 -5 -5 -6 -5 -6 -9 -7
1 1 1 0 -1 -1 -2 -3 -4 -3 -3 -3 -4 -5 -6 -7 -8 -8 -11 -13 -14 -16 -18 -15 -9 -6 -6 -6 -7 -7 -8 -9 -7 -7 -9 -9 -8 -7 -6 -6 -6 -7 -7 -7
1 0 -0 -1 -1 -2 -2 -2 -2 -3 -4 -9 -13 -13 -13 -13 -12 -14 -16 -19 -21 -19 -11 -7 -7 -8 -9 -12 -19 -20 -15 -12 -11 -11 -9 -8 -7 -7 -7 -9 -8 -7 -7 -9
0 0 -1 -1 -1 -1 -2 -3 -4 -9 -13 -12 -12 -12 -13 -16 -17 -18 -20 -21 -21 -17 -13 -10 -10 -11 -16 -19 -15 -12 -10 -11 -13 -14 -15 -14 -11 -8 -7 -7 -7 -8 -9 -9
-0 -1 -1 -2 -2 -3 -4 -10 -12 -12 -11 -11 -11 -15 -16 -17 -19 -22 -24 -21 -16 -10 -11 -10 -15 -23 -21 -17 -16 -17 -19 -16 -12 -11 -10 -10 -12 -10 -9 -7 -7 -8 -9 -9
-2 -2 -2 -3 -4 -5 -9 -7 -10 -11 -10 -12 -15 -16 -17 -19 -23 -25 -21 -13 -10 -10 -13 -20 -24 -23 -22 -22 -21 -18 -13 -12 -12 -12 -11 -10 -9 -9 -8 -9 -8 -8 -9 -9
-3 -4 -4 -5 -8 -8 -5 -6 -9 -10 -12 -15 -15 -16 -19 -23 -24 -21 -18 -13 -12 -14 -19 -23 -24 -24 -21 -19 -18 -17 -15 -14 -13 -13 -13 -12 -12 -11 -10 -11 -10 -10 -10 -10
-6 -12 -11 -11 -11 -9 -9 -9 -9 -12 -14 -14 -15 -18 -22 -23 -22 -19 -14 -14 -15 -19 -22 -22 -21 -21 -20 -19 -18 -17 -16 -16 -16 -16 -15 -15 -14 -14 -13 -13 -13 -13 -12 -12
-9 -9 -9 -8 -9 -9 -8 -10 -12 -13 -13 -15 -17 -20 -20 -20 -18 -17 -15 -16 -17 -18 -19 -18 -18 -19 -20 -19 -19 -18 -17 -17 -17 -17 -16 -16 -16 -16 -15 -15 -15 -15 -14 -14
-8 -6 -4 -5 -7 -8 -9 -11 -12 -12 -13 -15 -17 -17 -16 -18 -17 -16 -15 -17 -17 -18 -18 -18 -18 -18 -18 -19 -19 -19 -18 -18 -18 -18 -18 -17 -17 -17 -17 -17 -16 -16 -16 -15
-6 -7 -6 -8 -9 -9 -10 -12 -12 -13 -16 -18 -18 -17 -19 -17 -15 -15 -15 -17 -17 -17 -17 -17 -18 -18 -19 -19 -19 -19 -19 -19 -19 -19 -19 -18 -18 -18 -18 -18 -18 -18 -17 -17
-6 -7 -8 -8 -9 -9 -11 -15 -19 -19 -20 -22 -20 -19 -20 -15 -14 -14 -16 -17 -18 -18 -18 -18 -19 -19 -19 -19 -20 -20 -20 -20 -20 -20 -20 -20 -19 -19 -19 -19 -19 -18 -18 -18
-6 -7 -9 -10 -11 -11 -15 -20 -23 -23 -23 -21 -19 -19 -16 -14 -14 -16 -16 -17 -19 -18 -18 -19 -19 -19 -20 -20 -20 -20 -20 -20 -20 -20 -20 -20 -21 -20 -21 -21 -21 -20 -20 -20

GFSNGP_850_dewp_042.txt.gz
Dewpoint
-1 -1 -0 -0 -0 1 -1 -0 1 -1 -0 -3 -5 -5 -6 -6 -4 1 4 6 6 5 4 4 4 4 4 5 5 5 5 4 2 0 -2 -2 -3 -2 -3 -4 -4 -5 -6 -7
1 1 -1 -0 -1 -1 -1 -1 -0 -2 -1 -3 -5 -5 -5 -5 -4 -3 -2 0 2 3 4 3 3 4 5 6 6 5 3 1 0 -1 -2 -2 -3 -3 -3 -2 -4 -5 -6 -8
3 -0 -1 2 -1 -2 -2 -1 -2 -1 -2 -3 -2 -3 -4 -3 -3 -2 -2 -1 1 2 3 3 4 4 5 6 6 4 1 -1 -2 -3 -2 -3 -2 -1 -2 -3 -3 -5 -9 -7
3 0 2 1 -3 -3 -2 -3 -4 -4 -3 -2 -1 -1 -3 -2 -2 -2 -3 -3 -2 -1 3 5 5 5 6 6 3 0 -1 -3 -3 -4 -3 -2 -3 -2 -1 -2 -5 -10 -6 -6
2 3 1 -1 -5 -5 -2 -1 -3 -2 -1 -2 1 -0 0 0 -1 -1 -1 -1 -2 -1 -0 2 5 5 4 1 -0 -2 -3 -4 -3 -3 -2 -1 -0 -1 -4 -8 -8 -7 -7 -7
4 2 1 -0 -4 -5 -3 2 -1 -1 0 -0 -1 3 2 0 -0 -0 -0 0 0 0 0 1 3 2 1 -1 -2 -3 -4 -5 -3 -1 -0 -1 -3 -8 -8 -8 -8 -7 -7 -7
1 1 1 -1 -4 -4 -2 -1 -1 -1 -1 -0 1 2 1 0 0 0 -0 -0 -0 -0 0 -1 -1 -1 -2 -4 -4 -3 -2 -1 0 -2 -5 -7 -9 -11 -10 -8 -8 -8 -7 -8
4 2 2 -1 -3 -1 -1 -0 -0 -0 1 3 1 1 0 -0 -0 -0 -1 -1 -2 -2 -3 -4 -4 -4 -3 -1 -1 -0 0 -2 -5 -6 -8 -10 -14 -12 -12 -12 -10 -9 -8 -7
3 3 1 -2 -1 -1 -1 1 2 1 2 2 1 -0 -1 -1 -1 -2 -2 -2 -2 -2 -3 -3 -3 -3 -2 -2 -3 -4 -5 -8 -9 -10 -14 -16 -15 -15 -14 -13 -12 -11 -9 -8
2 4 4 3 2 2 1 2 3 3 3 2 1 -0 -1 -2 -2 -2 -3 -3 -3 -2 -2 -2 -3 -4 -6 -8 -10 -11 -12 -14 -16 -16 -17 -16 -15 -15 -13 -12 -11 -10 -10 -9
5 4 3 3 3 2 2 2 2 2 2 2 1 -1 -2 -2 -3 -3 -3 -2 -2 -3 -5 -6 -8 -9 -10 -11 -12 -13 -12 -11 -11 -11 -12 -11 -10 -11 -12 -11 -9 -9 -9 -8
3 3 2 3 1 2 2 1 1 1 -0 -1 -1 -2 -3 -3 -2 -2 -5 -6 -7 -7 -8 -9 -10 -10 -10 -9 -9 -8 -8 -9 -9 -8 -8 -7 -7 -8 -8 -7 -7 -7 -7 -7
3 3 2 1 1 1 1 0 -0 -0 -1 -2 -3 -3 -2 -3 -5 -6 -6 -7 -8 -10 -10 -9 -9 -10 -11 -12 -12 -12 -10 -9 -8 -7 -6 -5 -5 -5 -5 -7 -6 -5 -5 -5
3 2 1 1 1 0 0 0 -0 -1 -2 -2 -3 -4 -5 -4 -5 -5 -6 -7 -10 -14 -14 -14 -15 -15 -14 -12 -11 -9 -8 -8 -9 -9 -9 -9 -7 -7 -8 -8 -8 -8 -9 -6
2 3 2 1 1 0 -0 -2 -2 -4 -5 -4 -4 -4 -5 -5 -6 -6 -7 -10 -13 -15 -17 -18 -18 -15 -13 -13 -13 -14 -16 -20 -23 -21 -18 -15 -14 -14 -8 -7 -6 -6 -7 -9
2 2 1 1 -1 -2 -2 -3 -4 -4 -4 -5 -5 -5 -5 -6 -8 -12 -14 -17 -18 -18 -16 -15 -16 -13 -12 -15 -21 -27 -27 -21 -17 -15 -17 -19 -19 -16 -17 -15 -9 -8 -7 -8
1 0 -0 -1 -2 -2 -4 -4 -4 -4 -4 -5 -9 -11 -12 -13 -14 -17 -18 -19 -20 -19 -15 -13 -14 -15 -20 -27 -28 -25 -23 -22 -21 -19 -14 -11 -12 -10 -10 -10 -9 -9 -8 -7
1 1 0 -1 -2 -3 -2 -3 -3 -6 -10 -13 -13 -12 -15 -16 -16 -18 -20 -22 -20 -18 -16 -17 -20 -25 -28 -25 -25 -24 -23 -20 -17 -14 -13 -13 -12 -11 -11 -10 -9 -9 -9 -8
0 -0 -1 -2 -2 -2 -3 -4 -7 -12 -13 -12 -13 -16 -16 -16 -18 -21 -23 -24 -22 -20 -19 -21 -25 -27 -26 -26 -24 -22 -21 -19 -18 -16 -15 -14 -14 -13 -12 -11 -10 -9 -9 -9
-1 -1 -1 -1 -2 -3 -5 -10 -12 -12 -11 -14 -15 -16 -16 -19 -22 -23 -24 -23 -19 -18 -18 -22 -25 -25 -25 -23 -22 -21 -19 -19 -18 -17 -17 -16 -15 -15 -14 -13 -13 -12 -12 -12
-1 -2 -2 -3 -4 -7 -11 -11 -12 -12 -14 -16 -16 -16 -19 -21 -22 -24 -23 -19 -20 -20 -21 -22 -23 -23 -23 -23 -22 -21 -20 -19 -18 -17 -17 -17 -17 -16 -16 -16 -15 -15 -14 -14
-2 -3 -3 -3 -5 -7 -6 -9 -10 -12 -14 -14 -15 -18 -21 -22 -23 -23 -21 -19 -19 -19 -19 -21 -22 -22 -22 -22 -21 -21 -20 -19 -18 -18 -18 -18 -17 -17 -17 -17 -17 -16 -16 -16
-3 -5 -6 -8 -7 -7 -8 -10 -12 -13 -13 -14 -16 -19 -21 -22 -22 -21 -18 -18 -17 -19 -19 -19 -20 -20 -21 -22 -21 -21 -20 -20 -19 -19 -19 -19 -18 -18 -18 -18 -18 -17 -17 -17
-5 -6 -9 -8 -9 -9 -10 -11 -12 -12 -13 -15 -17 -18 -19 -20 -19 -18 -16 -15 -16 -18 -19 -20 -20 -21 -21 -21 -21 -21 -20 -20 -20 -20 -20 -20 -20 -19 -19 -19 -19 -18 -18 -18
-6 -5 -6 -7 -8 -9 -10 -11 -12 -12 -13 -16 -16 -16 -19 -19 -18 -16 -15 -15 -17 -18 -20 -21 -20 -21 -21 -21 -21 -20 -21 -20 -20 -20 -20 -20 -20 -20 -20 -20 -20 -20 -19 -19
-4 -5 -6 -8 -9 -10 -10 -12 -12 -15 -16 -18 -18 -18 -19 -18 -16 -15 -15 -16 -17 -19 -20 -20 -20 -20 -20 -21 -21 -21 -21 -21 -21 -21 -21 -22 -22 -22 -22 -22 -22 -21 -21 -21
-6 -7 -8 -9 -10 -10 -12 -17 -19 -21 -23 -22 -20 -18 -18 -17 -15 -15 -16 -17 -19 -20 -20 -20 -20 -20 -20 -21 -21 -21 -21 -22 -22 -22 -22 -22 -22 -22 -22 -22 -22 -22 -22 -21

GFSNGP_850_dewp_048.txt.gz
Dewpoint
-1 -2 -0 0 1 1 1 1 2 1 1 -1 -3 -5 -5 -6 -4 -2 -1 3 5 6 7 8 8 8 8 7 7 7 7 8 8 7 6 5 2 1 -2 -1 0 -3 -5 -1
1 -0 -0 1 -0 1 0 -1 -0 -1 -1 -3 -4 -3 -3 -2 1 3 4 3 3 4 6 6 6 7 8 8 8 8 8 8 7 6 4 2 0 -1 -1 -2 -2 -3 -0 -0
1 -0 -0 2 0 -0 -1 -1 -1 1 -1 -3 -3 -2 -2 -1 -0 1 1 2 1 1 1 2 3 4 5 6 7 7 7 6 4 1 0 -1 -2 -2 -2 -1 -1 0 -0 -2
2 1 2 -1 -2 -2 -1 -2 -3 -3 -3 -3 -2 -0 -1 -1 0 -0 -1 -1 -0 0 1 2 3 4 5 6 6 5 5 4 1 -1 -2 -3 -1 -1 0 0 -0 -2 -6 -8
3 3 0 -1 -2 -2 -2 -3 -3 -3 0 -0 0 -0 -0 -0 -1 -1 -1 -1 -1 -1 -1 1 3 5 5 5 4 4 2 0 -2 -3 -2 -1 -0 0 0 -3 -9 -9 -10 -11
1 2 2 -0 -2 -4 -5 -1 -2 -1 1 1 1 -2 1 -0 -0 -0 -0 -0 0 1 2 3 3 4 4 3 2 0 -2 -2 -2 -2 -1 0 -1 -8 -9 -9 -11 -13 -14 -15
0 1 2 -0 -4 -5 -1 -1 -2 -1 0 0 -0 -2 -0 -0 -0 -0 -0 0 1 1 1 1 1 1 1 -1 -1 -3 -3 -2 -1 -0 -2 -6 -9 -10 -12 -15 -15 -16 -16 -15
1 1 5 -3 -3 -2 -2 -4 -3 -1 -1 -0 -1 1 -0 -0 -1 -1 -1 -1 -1 -1 -2 -2 -2 -2 -3 -2 -1 -0 -1 -2 -5 -8 -11 -13 -15 -15 -15 -15 -15 -14 -12 -13
3 3 -0 -2 -3 -4 -4 -3 -2 -2 -1 -1 -1 0 -0 -1 -1 -2 -2 -2 -3 -3 -3 -3 -2 -2 -2 -4 -6 -8 -10 -12 -14 -14 -13 -12 -12 -12 -12 -11 -10 -9 -8 -8
2 2 2 2 0 -1 -3 -3 -2 -2 -2 -2 -1 0 -0 -1 -2 -3 -3 -3 -3 -3 -3 -4 -5 -6 -7 -10 -12 -13 -13 -13 -13 -13 -14 -14 -14 -13 -13 -13 -13 -13 -14 -15
2 3 3 3 1 -0 -1 -2 -1 -1 -1 -1 -1 -0 -1 -2 -2 -3 -3 -3 -3 -4 -5 -7 -9 -11 -11 -12 -13 -14 -14 -15 -15 -16 -17 -20 -25 -31 -33 -33 -31 -28 -27 -25
3 1 0 0 -0 0 -0 -0 0 -0 0 0 -0 -0 -1 -2 -3 -3 -3 -3 -5 -6 -8 -9 -10 -12 -14 -15 -16 -16 -16 -19 -23 -29 -33 -35 -35 -35 -34 -34 -32 -30 -26 -19
0 0 0 0 1 1 1 2 2 1 1 1 -0 -1 -2 -2 -3 -3 -4 -6 -8 -9 -10 -11 -13 -15 -15 -16 -17 -20 -25 -30 -34 -35 -35 -34 -33 -33 -34 -35 -33 -31 -23 -17
1 1 1 1 1 2 2 2 1 1 1 0 -1 -2 -2 -3 -4 -5 -7 -9 -11 -13 -14 -14 -15 -16 -18 -21 -24 -29 -33 -35 -34 -34 -33 -32 -31 -29 -27 -25 -24 -27 -25 -15
2 1 0 1 1 1 1 1 0 -0 -1 -1 -2 -2 -3 -5 -6 -8 -11 -13 -14 -15 -16 -16 -17 -20 -23 -26 -31 -34 -34 -34 -33 -32 -31 -30 -28 -27 -25 -22 -19 -18 -18 -17
2 1 1 1 1 0 -0 -1 -1 -2 -2 -2 -3 -4 -5 -6 -8 -9 -13 -14 -16 -16 -18 -19 -21 -23 -27 -32 -33 -33 -32 -32 -31 -29 -28 -26 -25 -24 -23 -21 -19 -17 -17 -16
1 -0 0 0 -0 -1 -1 -1 -1 -2 -2 -3 -4 -5 -6 -8 -11 -15 -16 -16 -17 -19 -20 -21 -24 -27 -31 -32 -32 -31 -30 -29 -28 -27 -26 -24 -23 -22 -20 -19 -19 -18 -18 -18
1 1 0 0 0 -1 -1 -2 -2 -3 -3 -4 -5 -6 -7 -13 -16 -17 -16 -17 -19 -21 -22 -23 -27 -31 -31 -31 -30 -29 -28 -27 -26 -25 -24 -23 -22 -21 -20 -19 -19 -19 -19 -19
2 1 1 0 -0 -1 -2 -3 -3 -3 -4 -4 -5 -9 -14 -17 -17 -17 -18 -19 -21 -22 -23 -26 -29 -30 -30 -30 -29 -28 -27 -26 -24 -24 -23 -22 -22 -21 -20 -20 -20 -19 -19 -19
1 1 0 -1 -1 -2 -2 -3 -4 -4 -3 -6 -11 -15 -16 -16 -17 -18 -20 -20 -22 -23 -25 -27 -29 -29 -29 -28 -27 -26 -25 -24 -23 -23 -22 -22 -21 -21 -21 -20 -20 -20 -20 -19
0 -1 -1 -1 -2 -2 -2 -3 -3 -5 -11 -14 -12 -13 -16 -17 -18 -19 -21 -22 -22 -24 -25 -27 -28 -28 -27 -27 -26 -25 -24 -23 -23 -22 -22 -22 -21 -21 -21 -21 -21 -21 -21 -20
-0 -1 -2 -2 -2 -3 -3 -4 -9 -12 -9 -9 -14 -16 -16 -17 -18 -20 -21 -22 -23 -23 -24 -25 -26 -27 -27 -26 -24 -23 -22 -22 -22 -22 -21 -21 -21 -22 -23 -23 -23 -23 -23 -23
-1 -2 -2 -2 -3 -4 -6 -8 -7 -7 -11 -16 -16 -16 -18 -18 -19 -20 -22 -21 -22 -22 -22 -23 -25 -26 -24 -23 -22 -22 -22 -22 -21 -21 -21 -22 -24 -24 -24 -23 -23 -23 -22 -22
-2 -3 -3 -4 -5 -5 -6 -6 -10 -15 -15 -15 -16 -17 -18 -18 -20 -21 -21 -21 -20 -19 -19 -21 -23 -22 -21 -21 -21 -21 -21 -21 -21 -21 -23 -26 -25 -24 -23 -22 -22 -22 -22 -22
-3 -4 -4 -5 -5 -6 -6 -10 -13 -13 -13 -14 -14 -15 -16 -18 -20 -21 -20 -19 -18 -18 -18 -20 -21 -21 -20 -20 -21 -21 -21 -21 -22 -23 -27 -26 -24 -24 -23 -22 -22 -22 -22 -22
-5 -5 -5 -6 -6 -7 -8 -11 -12 -12 -12 -12 -13 -14 -16 -19 -19 -18 -18 -17 -17 -17 -18 -20 -21 -20 -20 -20 -20 -21 -21 -22 -25 -27 -26 -25 -25 -24 -23 -22 -22 -22 -22 -22
-6 -6 -7 -7 -8 -9 -9 -10 -10 -10 -11 -11 -12 -14 -17 -17 -18 -18 -17 -16 -17 -17 -19 -20 -20 -20 -20 -20 -21 -21 -23 -28 -28 -28 -26 -26 -26 -26 -26 -23 -22 -22 -22 -22

GFSNGP_850_dewp_051.txt.gz
Dewpoint
-1 -3 -0 1 1 2 2 2 4 2 1 -1 -2 -3 -4 -4 -4 -2 -0 3 5 6 7 7 8 8 8 9 9 10 10 9 9 8 8 7 6 5 3 1 1 0 0 0
1 -0 -0 1 0 1 1 0 1 -0 0 -2 -3 -4 -2 -1 3 3 4 4 4 5 6 6 7 7 7 7 8 9 8 8 7 7 6 4 2 1 -0 -1 -0 -0 0 0
3 0 0 4 2 1 1 0 1 2 1 -2 -3 -2 -1 1 2 3 3 3 2 2 2 2 3 4 5 5 6 7 7 6 6 5 3 1 -0 -1 -2 -1 -0 -0 -0 -1
4 2 5 0 -2 -2 0 -1 -2 -2 -3 -3 -2 -0 -0 1 1 1 2 2 1 1 0 1 3 4 5 5 6 5 5 3 2 0 -0 -1 -1 -1 -0 -0 -0 -0 -4 -7
6 4 2 -1 -2 -1 -0 -2 -2 -2 -3 -1 0 0 0 -0 -1 -1 -0 -0 -0 0 1 2 3 4 5 4 4 4 2 0 -1 -1 -1 -1 -1 -1 -0 -2 -9 -9 -10 -10
3 5 6 2 -2 -4 -4 1 -3 -3 -0 1 0 2 1 -1 -1 -0 0 1 1 2 2 2 3 4 4 3 2 1 -0 -1 -1 -1 -1 -1 0 -3 -8 -9 -11 -13 -15 -15
3 6 4 -0 -3 -5 2 1 -3 -2 -0 1 0 -1 -1 -1 -0 -0 0 1 1 2 2 2 2 2 1 0 -1 -2 -2 -2 -2 -1 -0 -2 -8 -11 -14 -15 -16 -17 -16 -15
3 5 5 -2 -4 1 1 -5 -5 -2 -0 1 -1 -1 -1 -1 -0 -0 -0 -0 -0 0 -0 -1 -1 -1 -1 -1 -1 -1 -1 -2 -5 -9 -11 -14 -14 -14 -14 -13 -13 -13 -14 -16
4 5 2 -3 -2 -5 -5 -5 -4 -2 -1 -1 -1 -1 -1 -1 -1 -1 -1 -1 -2 -1 -2 -2 -2 -2 -2 -3 -4 -6 -9 -12 -13 -13 -13 -14 -14 -15 -17 -21 -28 -34 -34 -35
3 2 1 -1 -3 -3 -4 -4 -4 -2 -2 -1 -2 -1 -1 -1 -2 -2 -2 -3 -3 -3 -3 -3 -3 -4 -5 -8 -11 -12 -13 -14 -15 -15 -17 -20 -28 -34 -35 -35 -35 -33 -30 -26
3 2 3 1 -0 -2 -2 -2 -3 -1 -1 -1 -2 -1 -1 -2 -2 -3 -3 -3 -3 -3 -4 -6 -7 -9 -10 -11 -12 -14 -16 -17 -20 -26 -32 -35 -36 -36 -35 -34 -33 -31 -21 -13
4 1 1 -1 -2 -1 -1 -2 -2 -2 -1 -1 -2 -1 -1 -2 -3 -3 -3 -4 -4 -5 -6 -8 -10 -12 -13 -15 -16 -18 -21 -27 -31 -34 -36 -36 -36 -35 -34 -33 -31 -30 -25 -21
0 -1 -1 -2 -1 -0 -1 -1 -1 -1 -1 -1 -1 -1 -2 -2 -3 -3 -3 -4 -5 -7 -9 -10 -13 -15 -16 -17 -20 -25 -30 -33 -35 -36 -35 -34 -34 -32 -31 -29 -29 -28 -26 -25
1 0 0 -0 0 -0 0 0 0 -0 -0 -0 -0 -1 -2 -3 -3 -4 -5 -6 -8 -10 -12 -13 -15 -16 -19 -23 -27 -31 -33 -35 -35 -34 -33 -32 -31 -30 -29 -27 -26 -25 -25 -24
1 1 0 -0 -1 1 1 1 1 0 -0 -0 -1 -2 -2 -3 -4 -5 -7 -9 -11 -13 -14 -15 -17 -21 -24 -27 -31 -33 -34 -34 -33 -31 -30 -30 -29 -28 -27 -26 -25 -24 -24 -24
2 1 1 0 0 1 1 1 1 0 -0 -1 -2 -2 -3 -4 -5 -7 -10 -13 -14 -15 -16 -18 -21 -24 -27 -30 -33 -33 -33 -32 -31 -30 -29 -28 -27 -26 -25 -24 -24 -23 -22 -22
1 1 1 0 0 1 1 0 1 0 -1 -2 -2 -3 -4 -6 -6 -8 -12 -14 -15 -17 -19 -21 -23 -26 -29 -32 -33 -32 -31 -30 -29 -28 -27 -26 -25 -24 -24 -23 -22 -22 -21 -21
1 1 1 0 -0 -0 -0 -0 -1 -1 -2 -3 -4 -6 -5 -4 -7 -13 -15 -16 -17 -19 -21 -22 -24 -28 -31 -32 -31 -30 -29 -28 -27 -26 -26 -25 -24 -23 -23 -22 -22 -22 -21 -21
1 1 0 0 -0 -0 -1 -2 -2 -2 -2 -2 -3 -4 -4 -10 -15 -16 -16 -17 -19 -20 -21 -23 -27 -29 -30 -30 -30 -29 -28 -27 -26 -25 -24 -23 -23 -22 -22 -22 -22 -22 -22 -22
1 0 1 0 -1 -1 -2 -2 -2 -2 -3 -3 -4 -6 -14 -16 -16 -16 -17 -18 -19 -21 -23 -25 -28 -28 -29 -29 -29 -28 -26 -25 -24 -24 -23 -22 -22 -22 -22 -23 -24 -25 -25 -25
1 -0 -1 -1 -2 -2 -1 -2 -2 -3 -4 -4 -6 -14 -15 -11 -12 -17 -18 -19 -20 -22 -23 -25 -26 -27 -28 -29 -28 -27 -25 -24 -23 -23 -22 -22 -22 -22 -25 -26 -25 -25 -24 -24
-1 -1 -2 -2 -2 -2 -3 -3 -3 -4 -5 -12 -12 -7 -7 -10 -17 -17 -18 -20 -21 -22 -22 -23 -24 -26 -28 -28 -26 -25 -24 -23 -22 -22 -22 -22 -23 -26 -26 -25 -24 -24 -23 -23
-2 -2 -3 -3 -3 -4 -4 -4 -7 -10 -10 -6 -6 -8 -15 -16 -17 -18 -19 -19 -20 -20 -20 -21 -22 -24 -27 -26 -24 -23 -23 -22 -22 -22 -21 -23 -26 -26 -24 -24 -23 -23 -23 -22
-3 -3 -4 -4 -4 -5 -6 -7 -6 -6 -6 -9 -14 -16 -17 -17 -17 -18 -19 -19 -18 -18 -18 -19 -20 -23 -25 -24 -23 -22 -22 -21 -21 -21 -22 -25 -26 -25 -24 -24 -24 -23 -22 -22
-4 -5 -5 -5 -5 -6 -6 -7 -8 -9 -11 -13 -14 -15 -15 -16 -17 -18 -18 -17 -17 -17 -18 -19 -20 -23 -23 -23 -21 -21 -21 -21 -21 -23 -25 -27 -26 -25 -26 -26 -26 -23 -22 -22
-5 -6 -6 -6 -7 -7 -8 -9 -9 -10 -10 -11 -12 -12 -12 -13 -13 -14 -15 -16 -17 -17 -18 -20 -21 -22 -22 -21 -21 -21 -21 -21 -23 -26 -27 -27 -26 -26 -26 -27 -27 -25 -22 -22
-7 -8 -8 -8 -9 -9 -9 -10 -10 -10 -11 -11 -12 -12 -13 -13 -14 -14 -15 -15 -17 -18 -19 -20 -21 -21 -21 -21 -21 -21 -21 -21 -24 -27 -27 -27 -26 -26 -26 -26 -26 -26 -23 -22

GFSNGP_850_dewp_054.txt.gz
Dewpoint
-4 -6 -6 -5 -5 -3 -1 -1 -0 -1 -2 -3 -4 -4 -4 -3 -2 -1 -0 4 7 7 9 9 10 9 9 8 9 9 10 10 10 9 8 8 7 7 6 6 5 3 2 1
-0 -3 -3 -4 -4 -4 -3 -4 -1 -1 -1 -3 -3 -3 -3 -2 0 2 4 5 6 7 8 9 9 8 9 9 9 9 9 8 8 7 7 6 5 4 3 2 2 1 1 0
1 -0 -1 4 1 -2 -2 -1 -1 -1 -2 -4 -2 -2 -2 -0 2 3 4 5 5 6 7 6 6 6 6 6 7 7 7 7 6 5 4 3 2 1 1 -0 -0 0 0 0
3 4 9 -2 -2 -3 -2 -2 -2 -2 -3 -4 -4 -2 -0 1 3 3 3 4 4 4 4 4 4 4 5 5 6 5 5 5 4 2 2 1 0 0 -0 -0 0 0 -0 -1
9 4 -0 -1 -2 -1 0 -1 -3 -3 -4 -4 -1 -0 0 1 2 2 2 2 2 3 2 3 3 4 4 4 4 4 3 2 1 1 0 -0 -1 -1 -1 -0 -1 -2 -3 -4
4 5 9 -1 -3 -3 -3 1 -4 -5 -4 -3 -1 2 -2 0 1 1 1 1 2 2 2 2 2 2 2 2 1 1 1 0 0 -0 -1 -1 -0 -1 -4 -6 -8 -10 -10 -11
6 7 3 -1 -3 -3 2 2 -3 -4 -3 -1 0 -1 1 0 0 0 1 1 1 1 1 1 1 1 1 1 1 0 -0 -1 -1 -1 -1 -2 -6 -10 -12 -10 -14 -14 -15 -16
6 10 8 -2 -3 -1 -1 -0 -2 -1 -1 -0 0 1 0 0 -0 -0 -0 0 1 1 1 1 1 1 0 -0 -1 -2 -1 -1 -2 -7 -11 -13 -14 -15 -15 -16 -19 -22 -22 -17
3 3 1 -1 -3 -3 -0 -2 -1 -1 -0 1 1 0 -0 -0 -1 -1 -1 -0 -0 0 -0 -1 -1 -2 -2 -3 -2 -3 -6 -10 -13 -14 -15 -17 -18 -22 -21 -21 -21 -14 -13 -11
4 -0 1 0 -2 -0 -1 -1 -1 -1 0 2 0 -0 -0 -1 -1 -1 -1 -1 -2 -2 -2 -3 -3 -3 -3 -4 -7 -10 -12 -14 -16 -17 -20 -28 -29 -30 -19 -26 -27 -20 -12 -11
3 2 1 2 1 -0 1 -1 -2 -0 1 1 0 -0 -1 -1 -2 -2 -2 -2 -2 -3 -3 -3 -3 -5 -7 -10 -11 -13 -16 -18 -22 -28 -32 -27 -25 -33 -33 -30 -34 -33 -23 -26
5 0 2 -0 1 2 1 1 -1 -0 1 1 -0 -1 -1 -2 -2 -3 -3 -3 -3 -3 -4 -5 -7 -9 -11 -13 -15 -18 -21 -27 -30 -33 -34 -29 -20 -15 -25 -32 -32 -31 -29 -28
1 0 1 -0 -1 -0 2 1 0 0 1 0 -1 -1 -2 -2 -2 -3 -3 -3 -4 -4 -6 -8 -10 -13 -16 -17 -20 -25 -28 -30 -33 -34 -31 -29 -27 -24 -15 -13 -25 -26 -28 -27
1 -0 1 -1 -0 -2 1 1 0 1 0 -0 -1 -2 -2 -2 -3 -3 -3 -4 -5 -6 -8 -10 -14 -16 -18 -22 -25 -27 -30 -33 -34 -33 -31 -30 -29 -28 -22 -19 -15 -16 -18 -25
2 1 1 0 -0 -0 0 0 -0 -0 -1 -1 -2 -2 -2 -3 -3 -3 -4 -5 -6 -9 -11 -14 -16 -19 -23 -25 -28 -30 -32 -34 -34 -32 -31 -31 -30 -28 -25 -21 -17 -17 -16 -17
2 2 1 1 0 -0 0 0 -0 -1 -1 -1 -2 -2 -3 -3 -3 -4 -5 -7 -8 -11 -13 -16 -20 -23 -25 -28 -30 -32 -33 -33 -32 -31 -30 -29 -28 -27 -24 -20 -18 -16 -15 -16
2 2 2 1 1 0 0 0 -0 -1 -1 -2 -2 -3 -3 -4 -5 -7 -7 -7 -8 -14 -17 -20 -22 -24 -26 -29 -31 -32 -31 -31 -30 -29 -28 -28 -27 -25 -24 -22 -20 -19 -17 -18
2 2 1 1 1 0 -0 -0 -1 -1 -2 -2 -4 -4 -5 -6 -6 -6 -6 -10 -15 -18 -20 -22 -23 -25 -28 -30 -31 -31 -31 -30 -29 -28 -27 -26 -25 -25 -24 -23 -22 -21 -21 -22
1 1 1 0 0 -0 -1 -1 -2 -3 -3 -3 -4 -5 -5 -4 -5 -6 -8 -14 -18 -19 -18 -22 -25 -27 -28 -30 -31 -30 -29 -28 -27 -26 -26 -25 -24 -24 -23 -23 -24 -26 -26 -24
1 0 -0 -1 -2 -1 -2 -2 -2 -3 -4 -4 -4 -4 -5 -5 -7 -13 -15 -15 -11 -16 -21 -23 -25 -27 -28 -29 -30 -29 -28 -26 -25 -25 -25 -24 -23 -23 -23 -24 -27 -27 -26 -24
-0 -1 -1 -2 -3 -3 -2 -3 -3 -4 -4 -4 -4 -5 -7 -9 -10 -8 -7 -9 -13 -20 -22 -23 -24 -26 -27 -29 -29 -28 -26 -25 -24 -24 -23 -23 -23 -22 -24 -27 -27 -26 -25 -24
-3 -3 -3 -3 -3 -4 -4 -4 -3 -4 -5 -5 -6 -7 -7 -7 -8 -8 -10 -15 -19 -20 -21 -21 -22 -24 -26 -28 -26 -25 -25 -24 -23 -23 -22 -22 -22 -23 -27 -27 -26 -26 -25 -24
-4 -4 -4 -4 -4 -5 -5 -5 -5 -5 -7 -7 -7 -7 -7 -8 -9 -12 -16 -17 -19 -19 -20 -20 -20 -22 -24 -25 -24 -24 -23 -23 -22 -22 -22 -22 -22 -25 -27 -26 -26 -26 -26 -24
-5 -5 -5 -5 -5 -5 -6 -7 -7 -8 -7 -7 -8 -9 -10 -10 -10 -12 -17 -18 -19 -18 -18 -19 -20 -21 -22 -23 -23 -22 -22 -21 -21 -21 -21 -22 -23 -26 -26 -26 -27 -27 -27 -25
-7 -6 -6 -6 -6 -8 -8 -8 -8 -8 -9 -9 -10 -10 -11 -12 -14 -16 -18 -17 -15 -14 -14 -15 -17 -20 -21 -22 -22 -21 -21 -21 -21 -21 -21 -22 -24 -26 -26 -26 -27 -26 -26 -26
-7 -7 -8 -8 -9 -9 -9 -9 -9 -10 -10 -10 -11 -11 -11 -12 -12 -12 -13 -14 -14 -15 -15 -16 -17 -18 -20 -21 -21 -21 -21 -20 -21 -21 -21 -24 -26 -27 -27 -26 -26 -26 -26 -26
-9 -9 -9 -10 -10 -10 -10 -10 -11 -11 -12 -12 -12 -12 -13 -13 -14 -14 -15 -15 -16 -16 -17 -17 -18 -20 -20 -21 -21 -21 -21 -21 -21 -22 -24 -25 -26 -27 -26 -26 -26 -26 -25 -25

GFSNGP_850_dewp_060.txt.gz
Dewpoint
-1 -3 -3 -2 -2 -3 -3 3 7 4 -1 -3 -4 -3 -4 -4 -4 -4 -4 -1 -0 3 6 8 8 9 9 10 10 10 10 10 10 10 9 9 8 8 7 7 7 7 6 6
2 -2 -3 -1 -2 -4 -4 -4 -4 -3 -2 -5 -7 -6 -7 -4 -3 -3 -5 -4 -0 3 6 8 9 10 10 10 11 10 10 10 10 9 8 8 7 6 6 6 5 5 4 3
4 -0 -1 1 -2 -4 -4 -4 -4 -2 -3 -6 -6 -6 -5 -6 -4 -3 -3 -2 -1 3 7 9 11 10 10 10 10 9 9 9 8 7 6 6 5 4 4 3 2 1 1 1
6 5 6 -0 -3 -5 -4 -5 -7 -7 -7 -7 -7 -7 -5 -4 -4 -2 1 2 3 6 9 9 9 9 8 7 7 7 7 6 5 5 4 3 3 2 1 0 0 0 -0 -1
8 6 2 -1 -2 -2 -2 -2 -5 -5 -6 -8 -7 -3 -0 -1 -1 0 3 4 6 8 8 8 8 8 6 5 5 4 4 4 3 3 3 2 2 1 2 1 -0 -1 -2 -2
9 7 7 3 -1 -5 -3 2 -4 -5 -3 -4 -4 2 -1 -1 0 3 4 5 6 6 6 6 5 5 4 3 3 3 3 3 3 2 2 2 2 0 0 -1 -2 -5 -6 -6
8 9 6 -1 -2 -4 3 3 -2 -4 -4 -4 -1 -1 -1 -1 3 3 4 4 5 5 4 4 4 3 3 3 3 3 2 2 2 2 1 1 -0 -2 -4 -6 -6 -7 -10 -11
8 9 9 -0 -2 0 0 -2 -3 -3 -4 -5 -1 -1 -0 1 3 3 3 3 3 3 3 3 3 2 2 2 2 2 1 1 -0 -1 -2 -3 -4 -6 -6 -7 -9 -14 -19 -20
6 5 3 0 -1 -2 -1 1 -0 -1 -3 -3 0 1 1 2 2 2 2 2 3 3 2 2 2 2 2 2 1 0 -1 -2 -3 -4 -5 -6 -7 -10 -11 -13 -14 -16 -19 -21
4 2 3 3 2 0 -0 0 -0 -0 -1 -1 1 2 2 1 1 1 2 2 2 2 2 2 2 2 1 0 -1 -1 -2 -4 -6 -8 -11 -12 -13 -14 -15 -16 -18 -22 -20 -17
4 2 0 -1 -1 1 0 0 1 -0 -0 -0 1 2 1 1 1 1 1 1 1 2 2 2 1 0 -1 -1 -2 -3 -5 -7 -9 -12 -15 -14 -15 -17 -21 -25 -32 -32 -30 -30
4 -1 0 -0 -4 -4 -2 -2 -1 1 1 -0 1 2 1 1 1 1 1 1 1 2 1 -0 -1 -2 -2 -3 -5 -6 -9 -11 -14 -18 -15 -14 -18 -19 -24 -26 -29 -32 -33 -33
-4 -6 -2 -1 1 1 2 -0 -1 1 1 1 1 2 1 0 0 0 0 1 1 -0 -1 -2 -3 -4 -5 -6 -8 -10 -11 -12 -15 -20 -20 -19 -16 -17 -17 -15 -17 -22 -26 -27
-6 -5 -2 0 2 2 1 0 0 1 1 1 1 1 1 0 0 -0 -0 -0 -1 -1 -2 -3 -5 -6 -8 -10 -11 -12 -13 -19 -18 -16 -18 -21 -20 -17 -17 -14 -13 -15 -14 -16
-4 -1 1 2 3 2 1 0 1 1 2 1 1 1 0 0 -0 -1 -1 -1 -1 -3 -5 -7 -9 -10 -11 -11 -13 -16 -17 -15 -16 -19 -22 -25 -26 -29 -26 -21 -18 -14 -13 -12
4 4 1 2 3 2 2 1 1 2 1 1 1 0 0 -0 -1 -1 -2 -2 -4 -6 -8 -11 -12 -12 -14 -13 -16 -18 -21 -23 -29 -30 -31 -31 -28 -26 -21 -18 -16 -14 -14 -13
3 4 3 3 3 3 2 1 1 1 1 1 0 -0 -1 -1 -2 -3 -4 -6 -7 -9 -12 -13 -13 -14 -15 -16 -18 -17 -15 -15 -19 -30 -28 -27 -26 -24 -22 -21 -20 -17 -15 -15
2 2 3 2 2 3 2 2 1 1 1 0 -0 -1 -2 -2 -4 -5 -6 -8 -10 -12 -13 -14 -14 -13 -12 -9 -7 -7 -9 -20 -27 -28 -26 -27 -27 -25 -24 -23 -19 -16 -14 -15
1 1 2 2 2 2 2 1 1 1 0 -0 -1 -2 -3 -4 -5 -6 -8 -8 -8 -8 -8 -7 -7 -8 -8 -8 -11 -15 -16 -21 -27 -28 -27 -27 -26 -22 -19 -18 -14 -15 -17 -17
-1 -1 -0 0 1 1 0 -0 -0 -0 -1 -1 -2 -4 -6 -7 -6 -7 -7 -7 -7 -7 -8 -8 -8 -9 -12 -11 -10 -14 -23 -28 -27 -26 -26 -25 -22 -18 -18 -17 -16 -17 -16 -17
-5 -4 -4 -4 -4 -4 -4 -4 -3 -5 -5 -5 -5 -6 -7 -7 -7 -7 -8 -8 -9 -9 -9 -9 -10 -10 -11 -16 -17 -20 -25 -27 -26 -23 -20 -17 -17 -17 -16 -16 -17 -17 -17 -18
-6 -7 -7 -7 -7 -7 -7 -6 -6 -6 -6 -7 -7 -8 -8 -9 -9 -9 -9 -8 -10 -10 -10 -10 -11 -11 -12 -14 -17 -20 -21 -19 -19 -18 -18 -16 -17 -17 -17 -17 -18 -18 -18 -19
-7 -8 -8 -8 -8 -8 -8 -8 -8 -7 -8 -8 -8 -8 -9 -9 -9 -9 -10 -11 -11 -12 -12 -12 -12 -13 -13 -13 -14 -15 -15 -16 -16 -17 -17 -17 -18 -18 -18 -19 -19 -19 -20 -20
-8 -8 -8 -8 -7 -8 -9 -9 -8 -9 -9 -10 -10 -10 -10 -10 -10 -11 -11 -12 -12 -13 -13 -14 -14 -14 -15 -15 -16 -16 -16 -17 -17 -18 -18 -18 -18 -19 -19 -19 -20 -20 -21 -21
-9 -9 -9 -9 -9 -10 -10 -10 -10 -10 -10 -11 -11 -11 -11 -11 -11 -12 -12 -13 -14 -14 -15 -15 -16 -16 -16 -17 -17 -18 -18 -19 -19 -19 -19 -20 -20 -20 -20 -21 -21 -21 -22 -22
-10 -10 -10 -10 -10 -10 -10 -11 -11 -11 -12 -12 -12 -12 -13 -13 -13 -14 -14 -14 -15 -15 -16 -16 -17 -18 -18 -18 -18 -19 -19 -19 -20 -20 -20 -21 -21 -21 -21 -22 -22 -22 -23 -24
-12 -12 -12 -12 -12 -12 -12 -12 -12 -12 -13 -13 -13 -14 -14 -14 -15 -15 -15 -16 -16 -17 -17 -18 -18 -19 -19 -20 -20 -20 -20 -21 -21 -21 -22 -22 -22 -23 -23 -23 -23 -24 -24 -24

GFSNGP_850_dewp_066.txt.gz
Dewpoint
-1 -2 -2 0 1 -1 -0 1 5 4 5 3 1 -0 0 -2 -4 -2 -1 -0 0 2 2 3 4 6 8 8 8 9 9 5 5 7 8 10 9 8 10 10 9 8 8 8
2 -0 -2 -1 -1 0 -0 -0 1 2 3 -0 -2 -1 -0 -2 -2 -5 -2 -1 0 1 1 2 2 4 8 8 9 9 9 7 7 6 10 10 10 10 10 9 8 8 8 7
6 1 -0 3 1 1 -0 -0 2 5 3 0 -0 -0 -1 -3 -3 -4 -5 -3 1 2 1 1 0 -0 4 9 10 10 9 8 8 10 10 10 9 8 8 8 7 7 6 6
7 3 6 1 -2 -1 -0 -2 -2 -1 0 0 -1 -1 -2 -3 -4 -5 -6 -4 -1 2 2 3 3 4 7 8 9 10 10 10 10 9 9 8 8 8 7 6 6 5 5 4
8 5 3 2 -1 -1 -1 -0 -2 -3 -5 -5 -5 -4 -2 -4 -6 -6 -5 -4 -3 -1 2 5 6 7 9 9 10 10 10 10 9 8 8 8 7 6 6 5 4 4 2 1
6 8 6 2 -1 -1 -1 3 -2 -3 -2 -3 -2 -0 -1 -3 -5 -4 -3 -3 -3 -0 4 6 8 8 9 9 10 10 10 9 8 8 8 7 6 6 5 4 1 0 -0 -1
7 8 6 4 3 -0 4 2 -0 -1 -2 -2 -1 -1 -5 -3 -2 -3 -3 -3 -2 -0 3 6 8 9 9 9 9 9 8 8 8 7 6 6 4 3 2 0 -1 -1 -1 -1
6 7 6 3 3 3 2 2 1 1 2 0 -2 -3 -3 -2 -3 -3 -3 -3 -1 0 5 8 9 9 9 9 8 7 7 7 6 5 4 3 2 2 0 -1 -1 -1 -2 -4
5 4 3 2 4 3 3 3 3 2 0 2 1 -2 -2 -2 -2 -1 -3 -2 -1 1 5 7 8 8 8 7 6 6 6 5 4 3 3 2 2 0 -0 -1 -1 -3 -4 -5
4 1 2 1 1 -3 -0 1 1 2 -0 -0 2 -0 0 -1 -1 1 2 2 2 4 6 6 7 7 6 5 5 4 4 3 3 3 2 1 0 -0 -0 -1 -4 -5 -5 -6
3 2 2 2 1 0 -0 -1 -1 -0 0 1 0 1 1 -0 0 0 2 3 3 4 5 5 5 5 4 4 3 3 3 3 2 2 1 1 -1 -4 -5 -5 -5 -6 -9 -12
3 2 2 2 -4 -4 -1 -1 -1 0 1 1 0 1 1 1 1 2 3 4 4 4 4 4 4 4 3 3 3 3 3 2 1 0 -1 -3 -5 -7 -9 -10 -11 -12 -13 -14
2 2 0 -4 -4 -3 -4 -0 2 2 1 1 0 0 2 1 2 2 3 3 3 3 4 3 3 3 3 3 2 2 2 -0 -3 -4 -4 -6 -8 -10 -11 -12 -14 -19 -22 -24
3 3 2 2 1 0 2 2 1 1 1 0 0 1 2 2 2 2 2 2 3 3 3 3 2 2 2 2 1 1 -1 -4 -7 -10 -12 -13 -14 -15 -16 -17 -17 -16 -16 -17
3 3 3 3 3 2 2 2 2 1 1 0 0 1 2 2 2 2 2 2 2 2 2 1 1 -1 -2 -2 -2 -3 -6 -10 -10 -9 -10 -10 -11 -10 -9 -15 -14 -10 -10 -10
2 2 3 3 2 2 2 2 2 2 1 1 1 1 1 1 1 1 0 -0 1 0 -2 -2 -3 -6 -6 -6 -5 -6 -7 -6 -6 -7 -9 -9 -8 -9 -11 -10 -9 -10 -11 -12
1 0 1 2 2 2 1 1 1 1 1 1 0 -0 -0 -0 -1 -2 -3 -3 -3 -6 -8 -8 -9 -7 -6 -6 -6 -5 -5 -7 -7 -7 -7 -8 -9 -8 -9 -10 -11 -11 -12 -12
-1 -1 -0 1 1 1 1 1 0 -0 -0 -1 -1 -2 -2 -3 -4 -6 -7 -8 -7 -7 -6 -6 -6 -6 -6 -6 -7 -7 -7 -8 -8 -9 -9 -9 -10 -10 -11 -12 -12 -13 -13 -14
-2 -2 -2 -1 -1 -1 -1 -1 -2 -2 -3 -3 -4 -4 -5 -6 -8 -9 -8 -6 -6 -6 -8 -8 -8 -8 -8 -8 -8 -8 -8 -9 -9 -10 -11 -11 -12 -12 -13 -14 -14 -14 -15 -15
-6 -5 -5 -5 -5 -5 -5 -5 -5 -5 -5 -5 -5 -6 -7 -7 -7 -7 -6 -8 -9 -9 -10 -9 -9 -9 -9 -9 -9 -10 -10 -11 -11 -12 -13 -13 -14 -14 -15 -15 -15 -16 -16 -16
-8 -8 -7 -7 -8 -7 -7 -7 -6 -7 -7 -6 -6 -7 -8 -8 -8 -8 -8 -10 -11 -10 -10 -10 -10 -10 -10 -11 -11 -12 -12 -13 -13 -14 -15 -15 -16 -16 -16 -16 -17 -17 -17 -18
-9 -9 -9 -9 -9 -9 -8 -8 -8 -8 -8 -8 -8 -9 -9 -9 -9 -10 -11 -11 -12 -11 -11 -12 -12 -12 -12 -13 -13 -14 -14 -15 -15 -16 -16 -17 -17 -18 -18 -18 -18 -19 -19 -19
-9 -10 -10 -9 -9 -9 -9 -9 -9 -9 -9 -9 -9 -9 -10 -11 -11 -11 -13 -13 -13 -13 -12 -13 -14 -14 -14 -14 -15 -16 -16 -17 -17 -18 -18 -18 -18 -19 -19 -19 -20 -20 -20 -21
-10 -10 -10 -10 -9 -9 -10 -10 -10 -10 -11 -11 -11 -11 -11 -12 -13 -13 -14 -14 -14 -14 -14 -15 -16 -17 -17 -18 -18 -19 -20 -20 -20 -20 -20 -20 -20 -21 -21 -21 -22 -22 -22 -22
-10 -10 -11 -11 -11 -12 -12 -11 -11 -12 -12 -12 -13 -13 -13 -13 -14 -14 -14 -15 -16 -16 -17 -18 -19 -20 -21 -21 -22 -22 -22 -22 -22 -22 -22 -22 -22 -22 -23 -23 -23 -23 -23 -23
-11 -11 -11 -11 -12 -12 -12 -12 -13 -13 -13 -14 -14 -14 -15 -15 -15 -16 -16 -17 -17 -18 -18 -19 -20 -20 -21 -22 -22 -22 -22 -23 -23 -23 -24 -24 -24 -24 -24 -24 -24 -24 -24 -24
-12 -12 -12 -13 -13 -13 -13 -13 -14 -14 -15 -15 -15 -15 -15 -16 -16 -17 -17 -18 -18 -19 -20 -21 -21 -22 -22 -23 -24 -24 -24 -24 -24 -24 -24 -25 -25 -25 -25 -25 -25 -25 -25 -25

GFSNGP_850_dewp_072.txt.gz
Dewpoint
6 6 5 5 4 2 -0 -0 1 0 0 -1 -2 -2 -3 -4 -3 -2 -3 -3 -3 -3 -2 -0 1 3 3 4 5 6 7 7 7 6 4 3 3 3 4 6 7 7 6 7
6 5 4 5 4 1 -0 -1 -1 -0 -0 -2 -3 -3 -3 -3 -3 -3 -2 -3 -3 -4 -2 -2 0 1 1 1 2 5 7 7 7 8 8 7 6 6 6 6 8 9 8 8
5 6 4 4 3 1 1 -1 -0 1 0 -2 -1 0 -0 -1 -2 -2 -2 -2 -2 -3 -3 -3 -2 -1 -0 -0 2 2 3 6 8 8 8 8 8 8 8 8 9 9 9 9
5 5 6 0 2 -1 2 1 -1 -2 -1 -2 -2 -2 -2 -2 -2 -3 -3 -3 -3 -3 -2 -3 -2 -0 -0 1 2 2 4 6 7 8 8 9 9 9 9 9 8 9 9 8
4 6 3 -0 -4 1 0 1 -3 0 -1 -2 -3 -4 -4 -5 -5 -5 -5 -5 -5 -3 -3 -4 -3 1 2 2 2 3 4 6 6 7 8 9 9 10 10 9 9 8 8 8
5 6 5 -2 -2 -1 -1 0 0 3 1 -1 -3 0 -1 -4 -4 -4 -5 -4 -4 -5 -3 -4 -4 0 3 4 3 4 5 6 7 8 9 9 9 9 8 8 8 8 8 7
6 6 4 1 3 2 5 1 4 4 3 3 -0 -1 -2 -2 -3 -3 -4 -5 -5 -3 -4 -3 -3 -1 4 5 5 6 7 8 9 10 9 9 9 8 8 8 8 7 6 5
5 6 5 0 4 6 4 1 1 1 4 3 2 1 1 1 1 -3 -3 -3 -4 -1 -0 -1 -0 3 5 6 6 7 9 10 9 9 9 9 9 8 8 6 6 5 4 4
3 3 0 0 -0 -1 -2 -2 -4 -2 -2 4 2 2 1 1 2 2 2 4 1 -0 3 5 6 6 5 6 8 9 9 9 9 9 9 8 7 7 6 5 5 4 4 3
2 -3 -1 -3 -1 -1 -1 -1 -1 -2 2 3 2 1 1 2 1 1 2 4 4 6 6 3 7 7 8 8 9 9 9 9 8 8 7 7 6 5 5 4 4 3 3 1
-0 -2 1 -2 -1 2 2 1 2 2 2 3 2 1 1 2 1 1 -1 3 4 5 7 6 7 8 9 9 9 9 8 7 7 6 5 4 3 3 3 2 2 2 1 0
1 3 3 3 3 4 3 3 1 0 2 1 2 2 2 1 0 0 -1 3 3 5 7 7 8 8 8 8 8 7 6 5 5 4 3 3 2 2 1 1 1 0 -0 -1
2 2 2 3 3 3 3 3 3 3 2 2 2 1 2 2 -0 -1 0 1 4 6 6 7 7 7 6 6 5 5 4 4 4 3 3 2 2 1 1 -1 -2 -3 -4 -5
2 2 2 2 2 2 2 2 2 1 1 1 1 1 1 1 1 0 1 3 3 4 5 5 5 4 5 4 4 4 4 3 3 2 2 1 -0 -2 -3 -4 -5 -5 -5 -6
0 0 1 2 2 1 1 1 1 1 0 1 1 1 0 0 0 -0 0 1 2 3 2 3 3 3 1 2 2 2 1 0 -0 -2 -3 -4 -5 -5 -5 -5 -6 -6 -7 -8
-2 -0 1 1 -1 0 0 -0 -1 -1 -1 -2 -1 -2 -2 -2 -3 -2 -2 -2 0 -1 -2 -1 -1 -3 -2 -2 -1 -2 -3 -4 -4 -5 -5 -5 -6 -6 -7 -8 -8 -9 -9 -10
-3 -2 -2 -2 -3 -2 -2 -3 -3 -3 -4 -4 -4 -4 -4 -4 -4 -4 -4 -4 -4 -4 -5 -5 -6 -5 -5 -4 -4 -5 -5 -5 -6 -6 -6 -7 -8 -8 -9 -9 -10 -11 -11 -12
-5 -4 -4 -4 -4 -3 -4 -4 -5 -6 -6 -6 -5 -5 -5 -6 -7 -7 -7 -6 -6 -7 -7 -7 -6 -6 -6 -6 -6 -6 -6 -7 -7 -8 -9 -9 -10 -10 -11 -11 -12 -12 -13 -13
-7 -7 -7 -6 -6 -6 -7 -7 -8 -8 -8 -7 -6 -7 -8 -8 -9 -9 -8 -8 -8 -9 -10 -8 -7 -7 -8 -8 -8 -8 -8 -9 -9 -10 -10 -11 -11 -12 -12 -13 -13 -14 -14 -15
-9 -9 -9 -9 -8 -8 -9 -9 -9 -9 -9 -9 -9 -8 -9 -9 -9 -9 -8 -10 -11 -11 -10 -9 -9 -9 -9 -9 -9 -9 -10 -10 -11 -11 -12 -12 -13 -14 -14 -15 -15 -16 -16 -17
-10 -10 -10 -10 -10 -10 -10 -10 -10 -10 -10 -9 -9 -10 -11 -11 -10 -11 -11 -12 -12 -11 -11 -11 -11 -11 -11 -11 -11 -11 -12 -12 -13 -13 -14 -15 -16 -17 -18 -19 -19 -20 -20 -20
-11 -11 -11 -11 -11 -11 -11 -11 -10 -10 -10 -10 -11 -11 -11 -11 -11 -12 -13 -13 -13 -12 -12 -12 -13 -13 -13 -14 -15 -17 -18 -19 -20 -21 -22 -22 -23 -23 -23 -23 -23 -23 -23 -23
-11 -11 -11 -11 -11 -11 -11 -11 -11 -11 -11 -11 -11 -11 -11 -12 -13 -13 -14 -14 -14 -14 -14 -17 -19 -21 -25 -27 -27 -27 -27 -27 -27 -27 -27 -26 -26 -26 -26 -25 -25 -25 -25 -25
-11 -11 -12 -11 -11 -11 -12 -12 -12 -12 -12 -12 -13 -13 -13 -13 -14 -15 -15 -17 -18 -20 -23 -23 -25 -28 -30 -30 -30 -29 -29 -28 -27 -27 -27 -26 -26 -26 -26 -25 -25 -25 -25 -25
-11 -11 -11 -11 -11 -12 -12 -12 -12 -13 -13 -13 -14 -14 -15 -16 -16 -17 -18 -20 -21 -23 -26 -27 -30 -30 -30 -29 -29 -28 -28 -27 -27 -27 -26 -26 -26 -26 -26 -26 -26 -26 -26 -26
-11 -12 -12 -12 -12 -13 -13 -13 -13 -14 -15 -15 -16 -16 -17 -17 -18 -19 -20 -21 -24 -28 -30 -30 -30 -30 -29 -29 -28 -28 -27 -27 -27 -27 -26 -26 -26 -26 -26 -26 -26 -26 -26 -25
-12 -13 -13 -13 -13 -14 -15 -15 -16 -16 -16 -17 -18 -17 -17 -18 -19 -21 -23 -27 -30 -30 -30 -29 -29 -29 -28 -28 -27 -27 -27 -27 -26 -26 -26 -26 -25 -25 -25 -25 -26 -25 -25 -25

GFSNGP_850_dewp_075.txt.gz
Dewpoint
3 0 1 3 4 3 4 3 3 1 -0 -1 -1 -2 -2 -2 -4 -4 -4 -3 -3 -3 -3 -0 0 -0 1 4 6 6 7 7 7 7 5 1 0 0 1 1 1 1 2 2
5 2 0 3 3 0 3 3 1 0 0 -3 -3 -3 -3 -3 -3 -3 -4 -5 -4 -3 -3 -3 -2 -2 -2 -1 1 4 5 5 6 7 7 7 4 3 2 2 2 3 4 4
5 5 5 3 0 2 0 0 1 2 0 -2 -2 -1 -1 -2 -2 -2 -3 -4 -3 -3 -3 -3 -4 -2 -2 -2 -2 1 2 3 5 6 7 7 7 6 6 4 4 5 6 7
5 5 5 -2 -1 1 1 1 -1 -1 -2 -1 -2 -2 -2 -3 -2 -3 -4 -4 -5 -4 -3 -3 -2 -3 -2 0 -2 -1 1 2 4 5 7 7 7 7 7 7 7 8 8 9
6 5 2 -2 -5 -2 1 -1 4 3 4 3 2 -0 -2 -3 -4 -4 -4 -4 -4 -4 -5 -5 -4 -3 -2 0 0 1 1 2 3 5 7 8 8 8 8 9 9 9 9 9
5 5 5 -1 -2 2 -1 3 3 4 5 5 2 4 1 1 0 -1 -2 -2 -3 -3 -4 -5 -5 -4 -2 -1 1 0 1 4 5 5 6 7 8 9 9 9 9 8 8 8
4 5 3 1 -0 3 3 2 2 2 2 4 4 3 2 2 2 2 1 -2 -1 -2 -3 -3 -4 -4 -2 2 3 4 3 4 6 8 8 9 9 9 9 8 8 8 8 7
4 4 4 -0 3 3 0 2 1 -2 -1 2 1 2 1 1 1 1 1 3 1 1 -0 -0 -1 -0 2 5 6 6 7 8 8 9 9 9 9 9 8 8 8 7 7 6
3 3 0 1 0 -2 -2 0 1 1 -0 -0 2 2 3 2 1 1 1 2 6 6 5 5 4 3 4 6 7 7 7 8 9 9 9 9 8 8 8 7 7 6 4 3
2 -1 -0 -2 -2 3 3 4 4 3 1 1 3 4 3 2 2 2 1 1 4 7 7 6 8 8 8 7 8 9 9 9 9 9 9 8 7 6 6 5 5 4 3 2
1 -1 1 -2 2 3 3 3 3 2 3 3 4 3 3 2 2 1 1 1 3 6 7 7 8 8 8 9 8 9 8 8 8 8 7 6 6 5 3 3 2 3 2 1
0 2 2 2 3 2 2 2 2 1 2 3 3 2 2 2 2 1 3 -1 4 4 6 7 8 7 7 8 8 8 7 7 6 6 5 4 4 2 1 1 1 0 0 -0
1 2 2 2 2 3 1 1 1 0 0 0 1 1 1 1 1 2 2 3 4 5 6 6 7 6 5 5 6 6 6 5 4 4 3 2 1 1 1 -1 -1 -2 -3 -4
0 1 2 2 2 1 1 1 0 -1 -0 -2 -1 -0 -0 -0 -0 -0 0 1 2 3 2 3 5 5 4 3 4 5 5 4 3 3 2 1 -1 -2 -3 -3 -4 -5 -6 -5
-2 -2 -1 0 0 0 -0 1 -0 0 1 -1 -2 -2 -3 -1 -1 -2 -2 -1 -0 0 -0 1 2 1 2 2 4 4 3 1 -1 -2 -2 -3 -4 -4 -5 -5 -5 -6 -7 -7
-3 -2 -1 -2 -2 -2 -2 -0 -2 -4 -3 -4 -5 -4 -5 -4 -4 -3 -3 -2 -0 -3 -4 -3 -3 -3 -3 -2 -2 -2 -3 -4 -4 -5 -5 -5 -5 -6 -6 -7 -7 -8 -9 -9
-5 -4 -4 -4 -5 -5 -5 -5 -5 -5 -5 -7 -8 -7 -6 -5 -5 -5 -5 -5 -5 -5 -6 -6 -6 -5 -5 -4 -4 -5 -5 -6 -6 -6 -6 -7 -7 -7 -8 -9 -9 -10 -11 -11
-7 -6 -6 -6 -7 -7 -7 -8 -8 -8 -8 -7 -7 -7 -7 -7 -8 -8 -8 -7 -7 -7 -7 -7 -7 -6 -6 -6 -6 -6 -6 -7 -7 -7 -8 -8 -9 -9 -10 -10 -11 -12 -12 -13
-8 -8 -8 -8 -8 -8 -9 -10 -10 -10 -10 -9 -8 -9 -9 -10 -9 -9 -8 -8 -9 -9 -9 -8 -8 -8 -8 -8 -8 -8 -8 -8 -9 -9 -10 -10 -11 -11 -12 -12 -13 -14 -14 -15
-10 -10 -10 -10 -10 -10 -11 -11 -11 -11 -11 -10 -10 -10 -11 -11 -11 -10 -10 -11 -12 -12 -10 -9 -9 -9 -10 -9 -9 -9 -10 -10 -10 -11 -11 -12 -13 -13 -14 -15 -15 -16 -17 -18
-11 -11 -12 -12 -11 -11 -11 -11 -11 -11 -11 -10 -10 -11 -11 -12 -11 -11 -12 -13 -13 -12 -12 -11 -11 -11 -11 -11 -11 -11 -12 -12 -13 -14 -16 -17 -19 -20 -21 -23 -24 -24 -25 -25
-12 -12 -12 -12 -12 -12 -12 -11 -11 -11 -11 -11 -12 -12 -12 -13 -12 -13 -13 -14 -14 -13 -12 -13 -16 -20 -22 -23 -24 -26 -27 -27 -27 -27 -28 -28 -28 -28 -28 -27 -27 -26 -26 -26
-12 -12 -12 -12 -12 -12 -12 -12 -12 -12 -12 -12 -12 -12 -12 -13 -13 -13 -14 -15 -16 -21 -26 -28 -28 -31 -32 -33 -33 -33 -32 -32 -31 -30 -29 -28 -28 -27 -27 -26 -26 -26 -26 -26
-12 -12 -12 -12 -12 -12 -12 -13 -12 -12 -13 -13 -13 -14 -13 -14 -17 -18 -20 -21 -23 -28 -32 -32 -32 -32 -32 -31 -31 -30 -30 -29 -28 -28 -27 -27 -27 -27 -26 -26 -26 -26 -26 -26
-12 -12 -12 -12 -12 -13 -13 -13 -13 -13 -14 -14 -15 -16 -18 -19 -21 -21 -22 -25 -29 -31 -32 -31 -31 -30 -30 -30 -29 -29 -28 -28 -28 -27 -27 -27 -26 -26 -26 -26 -26 -26 -26 -26
-12 -12 -12 -12 -13 -13 -13 -14 -15 -15 -16 -17 -18 -18 -19 -20 -21 -24 -27 -31 -31 -31 -31 -30 -30 -29 -29 -29 -28 -28 -28 -27 -27 -27 -27 -26 -26 -26 -26 -26 -26 -26 -25 -25
-13 -13 -13 -13 -14 -15 -16 -17 -17 -17 -18 -18 -20 -19 -20 -22 -26 -30 -30 -30 -30 -30 -30 -29 -29 -29 -29 -28 -28 -28 -28 -28 -27 -27 -27 -27 -27 -27 -27 -26 -26 -25 -24 -24

GFSNGP_850_dewp_081.txt.gz
Dewpoint
2 2 0 1 1 1 1 1 3 2 1 -1 -3 -4 -4 -5 -4 -4 -4 -4 -4 -4 -1 4 6 7 7 8 9 9 9 8 8 8 8 9 8 9 9 8 8 7 8 8
0 -2 -1 -1 -2 -1 -1 -1 -1 -1 -1 -3 -3 -3 -3 -4 -4 -4 -3 -3 -4 -3 -3 -2 4 7 7 8 8 9 9 9 8 8 9 9 8 8 8 8 8 8 8 8
1 -1 0 2 -1 -3 -3 -4 -3 -0 -2 -4 -4 -3 -3 -3 -3 -4 -3 -2 -2 -1 -1 -2 -2 4 7 8 8 9 9 9 9 9 9 9 9 9 8 8 8 8 7 7
2 1 3 -2 -5 -5 -3 -4 -3 -2 -3 -3 -3 -2 -2 0 2 2 1 1 1 1 -0 -0 -0 0 2 6 8 8 9 9 9 9 9 9 9 9 9 8 8 8 8 8
2 -0 -4 -6 -6 -6 -4 -4 -1 -2 -2 -2 -1 -1 -0 2 2 2 2 2 2 2 4 4 3 1 1 3 6 8 8 9 8 9 9 9 9 9 9 9 9 8 9 8
2 2 0 -5 -5 -5 -4 -1 -1 -1 -2 -2 -3 0 -0 0 1 2 2 2 3 4 5 6 6 5 2 1 3 5 7 8 8 8 9 9 9 9 9 9 9 9 9 9
2 2 -2 -1 -4 -3 1 1 -1 -2 -1 -0 1 -0 -0 -1 -1 1 2 2 3 5 6 7 7 7 7 6 4 3 5 7 8 8 8 8 8 9 9 9 9 9 9 8
2 4 3 -6 -5 -0 2 -0 -0 -0 0 1 1 1 0 -1 -0 2 2 2 3 5 7 7 7 7 8 8 7 6 5 7 8 8 8 8 9 9 9 9 8 9 8 8
-2 -1 -2 1 1 2 1 1 1 1 0 1 1 2 2 2 2 2 2 3 4 5 7 6 7 7 8 8 8 8 8 8 9 9 9 9 9 9 9 9 8 9 8 8
4 -0 -0 2 2 2 1 1 1 1 1 1 1 1 1 2 3 2 2 3 4 4 4 5 6 6 7 7 7 8 8 8 9 9 9 9 8 8 8 8 8 7 8 7
-3 -2 -4 -2 1 2 1 1 1 1 1 1 0 0 -0 1 0 1 1 1 1 3 5 5 5 5 6 6 6 6 6 7 7 7 6 7 6 6 6 5 4 5 5 4
1 1 1 -0 0 2 0 1 0 1 -0 -0 -0 -1 -1 -1 -1 -1 -1 -2 -1 2 4 4 3 3 5 6 5 5 5 4 3 4 3 3 3 3 0 2 1 0 1 1
0 -1 -0 1 1 1 0 0 -0 -1 -1 -1 -1 -2 -2 -2 -3 -3 -3 -3 -2 1 2 1 2 3 3 2 3 3 4 3 1 -0 0 1 1 0 -1 -3 -3 -4 -3 -4
-2 -2 -1 -1 0 -1 -1 -1 -1 -2 -1 -2 -2 -3 -3 -4 -5 -6 -3 -2 -3 -2 -1 -1 -1 -0 -1 -1 0 0 1 2 1 0 -1 -2 -2 -3 -3 -4 -6 -7 -7 -7
-4 -4 -3 -2 -1 -2 -3 -3 -3 -4 -4 -4 -4 -5 -5 -6 -6 -6 -6 -3 -3 -4 -4 -3 -3 -3 -3 -2 -2 -1 -1 -2 -3 -3 -3 -4 -5 -6 -7 -8 -8 -9 -9 -9
-5 -5 -4 -4 -3 -3 -4 -4 -4 -4 -6 -6 -7 -7 -8 -9 -9 -8 -7 -6 -4 -6 -6 -6 -5 -6 -5 -4 -4 -4 -4 -4 -5 -6 -7 -7 -8 -8 -9 -9 -10 -10 -10 -10
-6 -6 -6 -5 -5 -5 -5 -6 -6 -7 -7 -8 -9 -9 -10 -10 -10 -10 -10 -9 -8 -7 -8 -7 -7 -6 -6 -6 -6 -6 -6 -6 -7 -7 -7 -8 -8 -8 -9 -10 -10 -11 -11 -12
-7 -7 -7 -6 -6 -6 -6 -7 -8 -9 -10 -10 -10 -10 -10 -10 -11 -11 -12 -11 -9 -8 -8 -8 -8 -7 -7 -7 -7 -7 -7 -8 -8 -9 -9 -9 -10 -11 -11 -11 -12 -12 -13 -13
-8 -8 -8 -8 -8 -8 -9 -10 -11 -11 -11 -11 -11 -11 -11 -11 -11 -11 -11 -11 -10 -11 -11 -10 -9 -8 -8 -8 -8 -8 -8 -9 -9 -10 -10 -11 -11 -12 -13 -13 -14 -14 -15 -15
-9 -9 -10 -10 -10 -10 -11 -12 -12 -12 -12 -12 -12 -12 -12 -13 -12 -12 -12 -12 -13 -13 -11 -11 -10 -10 -10 -10 -9 -10 -10 -11 -11 -12 -13 -13 -14 -14 -15 -15 -16 -16 -16 -17
-11 -11 -12 -12 -12 -12 -13 -13 -13 -13 -13 -12 -12 -12 -13 -13 -13 -14 -13 -13 -14 -13 -13 -14 -15 -18 -19 -18 -17 -16 -17 -17 -16 -16 -16 -16 -16 -17 -17 -17 -17 -17 -18 -18
-12 -12 -13 -13 -13 -14 -14 -13 -13 -14 -14 -14 -14 -14 -14 -14 -14 -13 -15 -17 -24 -31 -32 -34 -35 -34 -33 -31 -27 -24 -20 -18 -17 -17 -17 -18 -18 -18 -18 -19 -19 -19 -19 -20
-12 -13 -13 -13 -13 -14 -13 -13 -13 -13 -13 -14 -14 -14 -14 -15 -18 -19 -23 -29 -30 -34 -34 -34 -33 -33 -33 -25 -21 -21 -22 -20 -19 -19 -19 -19 -19 -20 -21 -21 -20 -21 -23 -22
-12 -13 -13 -13 -13 -13 -14 -14 -14 -14 -14 -14 -14 -17 -16 -17 -19 -21 -27 -32 -33 -33 -33 -32 -32 -32 -31 -27 -26 -23 -20 -20 -20 -20 -22 -22 -21 -22 -24 -26 -25 -23 -26 -26
-12 -13 -13 -13 -13 -14 -14 -14 -15 -15 -16 -17 -17 -20 -26 -27 -25 -26 -27 -31 -31 -26 -30 -31 -31 -31 -31 -30 -29 -28 -29 -29 -28 -26 -24 -24 -24 -25 -26 -27 -27 -27 -26 -26
-13 -13 -13 -14 -14 -14 -14 -14 -15 -15 -16 -17 -18 -19 -20 -21 -22 -22 -29 -30 -29 -29 -29 -31 -31 -27 -26 -29 -28 -28 -26 -26 -26 -28 -27 -26 -26 -27 -28 -28 -27 -27 -26 -25
-14 -14 -14 -14 -15 -15 -15 -15 -15 -16 -17 -18 -18 -19 -19 -20 -25 -22 -21 -20 -21 -21 -21 -23 -28 -30 -29 -25 -27 -25 -24 -25 -28 -28 -28 -28 -28 -28 -28 -27 -26 -25 -25 -25

GFSNGP_850_dewp_087.txt.gz
Dewpoint
1 -0 5 6 7 6 8 7 9 6 7 6 6 6 4 1 1 2 2 1 2 3 2 1 6 9 8 8 8 8 8 7 8 9 9 8 7 8 8 9 8 8 8 8
1 -2 -1 5 4 5 5 7 7 7 7 6 3 2 1 3 2 2 2 3 3 3 4 6 6 4 7 9 8 8 9 8 7 8 9 9 9 8 8 8 8 8 9 9
3 -0 -1 4 2 4 4 4 4 7 5 0 2 4 3 2 2 2 2 2 4 4 5 6 6 5 4 6 9 9 8 9 9 8 7 9 10 10 9 9 9 9 8 9
2 0 5 2 -1 -1 -2 1 1 4 3 3 4 2 0 -1 -1 -0 1 2 3 4 4 4 5 4 5 5 6 8 10 9 9 9 9 8 9 9 10 10 10 10 9 9
3 3 0 -3 -5 -4 -4 4 3 4 4 2 1 1 1 0 -0 -0 3 4 7 6 4 4 1 2 4 6 7 6 9 10 10 10 10 9 8 8 9 10 10 10 10 10
2 4 3 -1 -4 -3 -2 5 2 3 3 3 2 5 4 3 3 4 6 7 6 6 5 1 1 3 4 5 7 8 7 7 7 9 10 10 10 9 9 9 10 10 9 9
3 4 3 -2 -2 -3 3 5 2 1 1 1 2 3 2 2 2 1 2 3 4 4 5 3 2 3 4 5 6 7 7 7 7 7 8 10 10 10 10 10 10 10 10 10
3 3 3 -0 -1 3 4 2 1 1 1 2 1 1 1 1 1 1 1 1 1 2 2 3 4 5 5 5 6 5 6 7 7 7 9 9 10 10 10 10 10 10 10 10
1 1 4 4 3 3 1 1 1 1 1 1 1 0 1 0 0 0 0 0 1 1 2 2 3 3 4 4 5 4 5 4 5 6 7 8 9 9 9 10 10 10 10 10
2 4 4 3 3 1 1 0 0 0 0 0 -0 -0 -0 -0 -1 -1 -1 -1 0 1 1 1 1 2 3 3 3 3 4 3 3 2 2 4 6 7 7 6 6 7 7 6
5 3 3 3 2 2 0 -0 -0 -0 -0 -0 -1 -1 -1 -1 -1 -2 -2 -2 -2 -1 -0 0 1 1 2 3 3 2 2 3 3 2 2 2 2 2 2 2 1 -0 1 0
3 1 2 1 1 0 -0 -0 -1 -1 -1 -2 -2 -2 -2 -2 -2 -2 -2 -2 -2 -1 -1 -1 -0 0 1 1 1 1 2 2 1 1 1 -0 -1 -0 -0 -2 -2 -2 -2 -2
-0 1 1 -0 -1 -2 -2 -2 -2 -2 -3 -3 -4 -3 -4 -4 -4 -4 -3 -3 -3 -4 -4 -3 -2 -2 -2 -1 -1 -1 0 0 -0 -1 -1 -2 -3 -4 -5 -6 -6 -6 -8 -8
-3 0 -2 -3 -3 -3 -3 -3 -3 -4 -5 -6 -6 -6 -6 -6 -6 -6 -6 -7 -6 -6 -6 -6 -5 -4 -4 -4 -3 -3 -3 -2 -2 -3 -4 -5 -6 -6 -7 -8 -8 -8 -8 -8
-3 -5 -4 -4 -4 -4 -4 -4 -5 -5 -6 -7 -7 -8 -8 -8 -9 -9 -10 -9 -9 -8 -8 -8 -8 -7 -7 -6 -5 -6 -6 -6 -6 -6 -7 -7 -7 -8 -8 -9 -9 -9 -9 -9
-6 -6 -6 -6 -5 -5 -5 -6 -7 -7 -7 -8 -9 -10 -10 -10 -10 -10 -10 -10 -9 -10 -9 -9 -9 -9 -8 -8 -7 -7 -8 -8 -7 -8 -8 -8 -8 -9 -9 -10 -10 -10 -10 -10
-7 -7 -7 -7 -6 -7 -8 -8 -9 -9 -9 -10 -10 -10 -11 -11 -11 -11 -11 -11 -10 -11 -10 -10 -9 -9 -8 -8 -8 -9 -9 -9 -9 -9 -9 -9 -9 -10 -10 -11 -11 -11 -12 -11
-8 -8 -8 -8 -8 -9 -9 -10 -11 -11 -11 -11 -11 -11 -11 -12 -12 -12 -12 -11 -11 -11 -11 -11 -10 -9 -9 -9 -9 -9 -9 -10 -10 -10 -10 -10 -11 -11 -11 -12 -12 -13 -13 -13
-10 -10 -10 -9 -10 -10 -11 -11 -12 -13 -12 -12 -12 -13 -13 -13 -12 -12 -12 -11 -11 -12 -13 -12 -11 -11 -10 -10 -10 -10 -10 -10 -11 -12 -12 -12 -12 -13 -13 -13 -14 -14 -15 -15
-12 -12 -12 -11 -11 -12 -12 -12 -13 -13 -13 -13 -13 -13 -13 -14 -13 -13 -12 -12 -14 -14 -13 -13 -12 -12 -12 -12 -11 -11 -11 -12 -12 -13 -13 -13 -14 -14 -15 -16 -17 -18 -20 -21
-13 -13 -13 -13 -13 -13 -13 -13 -13 -13 -13 -13 -13 -14 -14 -14 -13 -13 -13 -13 -15 -17 -20 -22 -25 -25 -22 -22 -22 -21 -20 -19 -18 -18 -18 -18 -18 -18 -18 -18 -18 -19 -19 -20
-13 -13 -13 -13 -13 -13 -13 -13 -14 -14 -14 -14 -14 -14 -14 -14 -14 -17 -22 -27 -30 -30 -29 -29 -27 -25 -25 -26 -25 -23 -22 -21 -20 -20 -20 -20 -20 -19 -19 -19 -20 -21 -21 -21
-13 -13 -13 -13 -13 -14 -14 -14 -14 -14 -14 -14 -14 -14 -16 -20 -25 -28 -31 -31 -31 -31 -30 -30 -28 -25 -24 -25 -25 -25 -25 -25 -25 -25 -24 -24 -23 -24 -25 -25 -24 -24 -26 -26
-13 -13 -13 -14 -14 -14 -14 -14 -14 -14 -14 -15 -16 -16 -18 -22 -25 -25 -26 -27 -29 -30 -31 -31 -30 -29 -28 -28 -28 -27 -26 -26 -26 -26 -26 -27 -27 -27 -26 -27 -27 -28 -28 -28
-13 -13 -13 -13 -13 -14 -14 -14 -15 -15 -16 -18 -20 -23 -25 -26 -28 -25 -25 -25 -26 -27 -29 -29 -29 -28 -27 -28 -28 -27 -27 -28 -28 -28 -28 -29 -28 -28 -28 -28 -28 -28 -28 -27
-13 -13 -13 -13 -13 -13 -13 -14 -15 -15 -16 -17 -19 -20 -22 -21 -20 -20 -21 -21 -21 -23 -25 -26 -28 -28 -27 -26 -26 -26 -25 -27 -28 -28 -28 -27 -28 -28 -28 -28 -28 -27 -27 -26
-13 -13 -13 -14 -14 -14 -14 -14 -15 -16 -16 -17 -18 -18 -19 -19 -19 -19 -20 -20 -21 -20 -21 -22 -23 -24 -25 -27 -27 -26 -28 -29 -28 -28 -28 -28 -28 -28 -27 -27 -27 -26 -26 -25